Weather Roundup
Issued by NWS

Home | Current Version | Previous Version | Text Only | Print | Product List | Glossary On
Versions: 1 2 3 4 5 6 7 8 9 10 11 12 13 14 15 16 17 18 19 20 21 22 23 24 25 26 27 28 29 30 31 32 33 34 35 36 37 38 39 40 41 42 43 44 45 46 47 48 49 50
000
NZUS93 KARX 252110
HRRWXR

CURRENT HOURLY OBSERVATIONS ACROSS
MUCH OF THE UPPER MISSISSIPPI VALLEY
NATIONAL WEATHER SERVICE LA CROSSE WI
300 PM CST SUN JAN 25 2015


...SOUTHEAST MINNESOTA...


CITY           SKY/WX    TMP DP  RH WIND       PRES   REMARKS
ROCHESTER      CLOUDY    25  17  72 NE8       29.98R WCI  16
ROCHESTER/MAYO CLOUDY    27  16  62 N7        29.99S WCI  20
WINONA         MOSUNNY   30  18  59 NE6       30.03R WCI  24
AUSTIN         CLOUDY    27  21  80 NE6       29.98R WCI  20
ALBERT LEA     CLOUDY    27  25  93 N7        29.99R WCI  19
DODGE CENTER   CLOUDY    25  19  80 NE7       29.98S WCI  17
PRESTON        CLOUDY    26  20  77 N10       29.98R WCI  16
OWATONNA       CLOUDY    25  18  74 N7        30.01R WCI  17
FARIBAULT      CLOUDY    25  18  74 N6        30.03R WCI  18
$$

...ELSEWHERE IN MINNESOTA...


CITY           SKY/WX    TMP DP  RH WIND       PRES   REMARKS
MINNEAPOLIS    SUNNY     27  12  53 N7        30.04R WCI  19
INTNL FALLS    CLOUDY    16   5  62 SW3       29.99F
DULUTH         FLURRIES  20  13  74 E13       30.00F WCI   7
RED WING       CLOUDY    27  16  63 N6        30.04R WCI  20
REDWOOD FALLS  CLOUDY    30  23  75 N3        30.03R
MANKATO        CLOUDY    27  16  63 CALM      30.03R
WORTHINGTON    CLOUDY    28  27  93 N7        30.02R WCI  21
FAIRMONT       CLOUDY    28  21  74 N8        30.02R WCI  20
$$

...SOUTHWEST WISCONSIN...


CITY           SKY/WX    TMP DP  RH WIND       PRES   REMARKS
LA CROSSE      MOSUNNY   28  16  60 E7        30.01R WCI  21
PRAIRIE DU CHI SUNNY     29  16  57 N6        29.98R WCI  23
BOSCOBEL       SUNNY     28  14  55 E7G17     29.99R WCI  21
LONE ROCK      CLOUDY    24  14  65 NE10      29.99R WCI  14
PLATTEVILLE    CLOUDY    24  18  76 N15       29.94R WCI  11
FORT MC COY    MOSUNNY   27  13  55 E7        30.02R WCI  20
CAMP DOUGLAS   MOSUNNY   25  10  54 N8        30.01R WCI  16
VIROQUA        FAIR      26  15  63 NE8       29.97R WCI  17
WIS DELLS      PTSUNNY   23  12  63 NE9G16    29.98R WCI  13
$$

...ELSEWHERE IN WISCONSIN...


CITY           SKY/WX    TMP DP  RH WIND       PRES   REMARKS
MILWAUKEE      PTSUNNY   25  14  63 NE20G26   29.94R WCI  11
MADISON        PTSUNNY   25  14  63 NE14      29.95R WCI  13
GREEN BAY      SUNNY     21  11  65 NE18      30.03R WCI   6
EAU CLAIRE     CLOUDY    23  11  60 E7        30.02S WCI  15
BLACK RVR FLS  FAIR      28  11  49 E6        30.01R WCI  21
MEDFORD        CLOUDY    20   8  59 NE3       29.99R
WAUSAU         MOSUNNY   21   6  52 NE6       29.99R WCI  13
WIS RAPIDS     SUNNY     21   7  54 E10       30.03R WCI  10
MARSHFIELD     CLOUDY    21   8  57 E7        30.00R WCI  12
RICE LAKE      CLOUDY    22  11  61 N6        30.05R WCI  15
$$

...NORTHEAST IOWA...


CITY           SKY/WX    TMP DP  RH WIND       PRES   REMARKS
DECORAH        MOSUNNY   30  19  64 N10       29.96R WCI  21
MASON CITY     CLOUDY    29  26  89 N8        29.99R WCI  21
CHARLES CITY   CLOUDY    30  28  93 N10       29.97R WCI  21
OELWEIN        PTSUNNY   30  23  74 NE12      29.94R WCI  21
$$

...ELSEWHERE IN IOWA...


CITY           SKY/WX    TMP DP  RH WIND       PRES   REMARKS
DES MOINES     CLOUDY    35  29  78 N12       29.97R WCI  27
IOWA CITY      CLOUDY    29  23  78 N17       29.93R WCI  17
FORT DODGE     CLOUDY    32  27  80 N7        30.00R WCI  26
$$

...NORTHERN ILLINOIS...


CITY           SKY/WX    TMP DP  RH WIND       PRES   REMARKS
CHICAGO-OHARE  FLURRIES  27  21  78 N21G30    29.86R WCI  13
CHICAGO-MIDWAY LGT SNOW  30  26  85 NE22      29.85R VSB 1   WCI  17
MOLINE         CLOUDY    30  22  72 NE8       29.87R WCI  22
ROCKFORD       PTSUNNY   27  14  58 NE18G30   29.91R WCI  14
PEORIA         LGT SNOW  33  29  85 NE13G24   29.79R FOG     WCI  24
$$

NOTE: "FAIR" INDICATES FEW OR NO CLOUDS BELOW 12,000 FEET WITH NO
SIGNIFICANT WEATHER AND/OR OBSTRUCTIONS TO VISIBILITY. WIND
SPEEDS ARE IN MILES-PER-HOUR.



USA.gov is the U.S. government's official web portal to all federal, state and local government web resources and services.